Location: Antioch Baptist Church
(32.6696°N, 85.7327°W)
Time: 08:35:18
(UTC+00:00)

Cosmos-2242 - Pass Details

Date: 30 October 2020
Orbit: 592 x 616 km, 82.5° (Epoch: 03 December)

Event Time Altitude Azimuth Distance (km) Brightness Sun altitude
Rises 11:20:42 0° 7° (N) 2,881 6.5 -8.7°
Reaches altitude 10° 11:23:12 10° 20° (NNE) 1,976 5.8 -8.2°
Maximum altitude 11:26:56 27° 78° (ENE) 1,192 5.4 -7.4°
Drops below altitude 10° 11:30:38 10° 137° (SE) 1,970 6.6 -6.7°
Sets 11:33:07 0° 149° (SSE) 2,872 7.2 -6.2°
